📊 Raw Sensor Data

Showing records 51226 to 51250 of 85,146 total

ID Distance (ft) Battery V Battery A Int Temp (°F) Int Humid (%) Ext Temp (°F) Solar V RSSI SNR Time Stamp
33933 14.8 4.01 0 33 37 37 4.50 -78 8 03/03/2025 07:00 AM
33932 14.8 3.91 0 32 38 34 4.50 -77 8 03/03/2025 06:45 AM
33931 14.8 3.95 -9 32 38 34 3.70 -78 7 03/03/2025 06:30 AM
33930 14.8 3.90 -5 33 38 35 0.20 -78 8 03/03/2025 06:15 AM
33929 14.8 3.96 -5 32 38 34 0.00 -77 8 03/03/2025 06:00 AM
33928 14.8 3.96 -5 33 38 34 0.00 -77 8 03/03/2025 05:45 AM
33927 14.8 3.90 -5 33 38 35 0.00 -78 8 03/03/2025 05:30 AM
33926 14.8 3.90 -5 33 38 35 0.10 -79 9 03/03/2025 05:15 AM
33925 14.7 3.91 -5 33 38 35 0.00 -77 8 03/03/2025 05:00 AM
33924 14.7 3.91 -5 33 39 35 0.00 -78 7 03/03/2025 04:45 AM
33923 14.7 3.91 -5 33 39 35 0.10 -78 7 03/03/2025 04:30 AM
33922 14.8 3.91 -5 34 39 34 0.00 -78 9 03/03/2025 04:15 AM
33921 14.7 3.91 -5 35 39 36 0.00 -78 8 03/03/2025 04:00 AM
33920 14.8 3.91 -5 35 39 36 0.00 -77 9 03/03/2025 03:45 AM
33919 14.7 3.97 -5 36 39 35 0.00 -77 8 03/03/2025 03:30 AM
33918 14.7 3.91 -5 38 38 39 0.00 -78 7 03/03/2025 03:15 AM
33917 14.8 3.91 -5 39 38 39 0.00 -78 8 03/03/2025 03:00 AM
33916 14.7 3.97 -5 40 37 42 0.00 -77 8 03/03/2025 02:45 AM
33915 14.7 3.92 -5 40 37 42 0.10 -78 8 03/03/2025 02:30 AM
33914 14.7 3.92 -5 40 38 42 0.00 -78 8 03/03/2025 02:15 AM
33913 14.7 3.92 -5 39 38 42 0.10 -77 8 03/03/2025 02:00 AM
33912 14.7 3.92 -5 39 38 41 0.10 -77 8 03/03/2025 01:45 AM
33911 14.7 3.92 -5 40 38 42 0.00 -77 8 03/03/2025 01:30 AM
33910 14.7 3.92 -5 40 38 42 0.00 -77 8 03/03/2025 01:15 AM
33909 14.7 3.98 -5 39 38 41 0.10 -76 8 03/03/2025 01:00 AM